CW3081 Weather Reports


time (UTC)temp
F
wind
direction
speed
knots
gust
knots
rain 1hr
in
rain 24hr
in
rain mn
in
humidity
%
barometer
mb
20260504003055 62 0 0.0 0.0 0.00 0.00 0.00 52 1015.3
20260504001601 63 0 0.0 0.9 0.00 0.00 0.00 47 1015.4
20260504000047 64 0 0.0 0.9 0.00 0.00 0.00 44 1015.3
20260503234544 64 247 0.0 0.9 0.00 0.00 0.00 44 1015.5
20260503233048 65 243 0.0 1.7 0.00 0.00 0.00 45 1015.8
20260503231548 65 0 0.0 0.9 0.00 0.00 0.00 44 1015.9
20260503230047 66 253 0.0 2.6 0.00 0.00 0.00 42 1015.9
20260503224546 66 282 0.9 2.6 0.00 0.00 0.00 41 1016.0
20260503223050 66 282 0.9 2.6 0.00 0.00 0.00 40 1016.0
20260503221553 66 234 0.0 1.7 0.00 0.00 0.00 41 1016.3
20260503220044 67 256 1.7 2.6 0.00 0.00 0.00 39 1016.5
20260503214547 66 243 0.9 2.6 0.00 0.00 0.00 41 1016.7
20260503213040 66 267 0.9 2.6 0.00 0.00 0.00 43 1017.0
20260503211545 66 250 0.0 2.6 0.00 0.00 0.00 41 1017.1
20260503210044 66 260 1.7 2.6 0.00 0.00 0.00 39 1017.5
20260503204543 66 195 0.9 3.5 0.00 0.00 0.00 42 1017.5
20260503203047 66 285 0.9 2.6 0.00 0.00 0.00 43 1017.8
20260503201546 66 237 0.0 2.6 0.00 0.00 0.00 42 1018.1
20260503200050 66 271 0.9 2.6 0.00 0.00 0.00 42 1018.5
20260503194543 66 257 0.9 2.6 0.00 0.00 0.00 42 1018.7
20260503193054 65 265 1.7 3.5 0.00 0.00 0.00 39 1019.0
20260503191546 66 328 1.7 2.6 0.00 0.00 0.00 38 1019.2
20260503190051 66 199 0.0 2.6 0.00 0.00 0.00 41 1019.4
20260503184556 66 219 0.9 2.6 0.00 0.00 0.00 39 1019.6
20260503183107 65 0 0.0 2.6 0.00 0.00 0.00 38 1019.9
20260503181614 65 0 0.0 2.6 0.00 0.00 0.00 42 1019.9
20260503180047 64 283 0.0 2.6 0.00 0.00 0.00 43 1020.3
20260503174544 63 257 0.9 2.6 0.00 0.00 0.00 43 1020.3
20260503173055 63 153 0.0 2.6 0.00 0.00 0.00 43 1020.4
20260503171542 62 0 0.9 1.7 0.00 0.00 0.00 47 1020.6
20260503081542 39 0 0.0 0.0 0.00 0.00 0.00 92 1020.1
20260503071547 40 0 0.0 0.0 0.00 0.00 0.00 92 1020.0
20260503070106 40 0 0.0 0.0 0.00 0.00 0.00 91 1019.9
20260503060112 42 0 0.0 0.0 0.00 0.00 0.00 91 1020.1
20260503054546 42 0 0.0 0.0 0.00 0.00 0.00 91 1020.1
20260503053044 42 0 0.0 0.0 0.00 0.00 0.00 91 1020.2
20260503051551 42 0 0.0 0.0 0.00 0.00 0.00 91 1020.1
20260503050045 42 0 0.0 0.0 0.00 0.00 0.00 91 1019.9
20260503044543 43 0 0.0 0.0 0.00 0.00 0.00 90 1019.8
20260503043044 43 0 0.0 0.0 0.00 0.00 0.00 90 1019.7
20260503041543 43 0 0.0 0.0 0.00 0.00 0.00 90 1019.6
20260503040043 44 0 0.0 0.0 0.00 0.00 0.00 90 1019.7
20260503034556 44 0 0.0 0.0 0.00 0.00 0.00 90 1019.6
20260503033054 45 0 0.0 0.0 0.00 0.00 0.00 90 1019.6
20260503031547 45 0 0.0 0.0 0.00 0.00 0.00 89 1019.4
20260503030046 46 0 0.0 0.0 0.00 0.00 0.00 89 1019.5
20260503024550 46 0 0.0 0.0 0.00 0.00 0.00 88 1019.4
20260503023055 47 0 0.0 0.0 0.00 0.00 0.00 88 1019.3
20260503021549 47 0 0.0 0.0 0.00 0.00 0.00 88 1019.2
20260503020052 48 0 0.0 0.0 0.00 0.00 0.00 87 1018.9
20260503014549 48 0 0.0 0.0 0.00 0.00 0.00 87 1018.8
20260503013051 49 0 0.0 0.0 0.00 0.00 0.00 86 1018.6
20260503011601 50 0 0.0 0.0 0.00 0.00 0.00 84 1018.6
20260503010107 50 0 0.0 0.0 0.00 0.00 0.00 83 1018.3
20260503004545 51 0 0.0 0.0 0.00 0.00 0.00 81 1018.3